INMARSAT 2-F2

导读 | 豆包AI

INMARSAT 2-F2是国际海事卫星组织(INMARSAT)第二代海事通信卫星,于1991年3月8日发射升空,属于地球同步轨道通信卫星,部署于指定洋区,为全球除两极外的海事、航空及陆地移动用户提供通信服务。该卫星继承第二代海事卫星技术体制,支持电话、电报、传真、数据传输等业务,可满足遇险报警、安全通信、常规通信等多种需求,助力完善全球海上遇险与安全系统,提升海事通信的覆盖能力与服务可靠性,是INMARSAT第二代卫星组网的重要组成部分,推动了全球移动卫星通信业务的发展。

基本信息
目录编号:
21149
目录名称:
INMARSAT 2-F2
国际标识:
1991-018A
轨道中心:
EARTH
卫星名称:
INMARSAT 2-F2
卫星全名:
--
卫星状态:
在轨 (已飞行12790 天)
发射日期:
1991-03-08 UTC
国别 :
(Inmarsat)
星等 :
--
轨道信息
数据来源 国际轨道数据 AOE轨道数据
星历时间 2026-03-13T08:03:30+0800
1天前
查看轨道信息
2026-03-13T08:00:00+0800
1天前
查看轨道信息
半长轴 42604.033km 42603.688km
偏心率 0.0006233 0.0006052
轨道倾角 12.737° 12.737°
近地点辐角 297.642° 295.819°
升交点赤经 9.825° 9.823°
平近点角 238.279° 239.247°
近地点 36199.34km 36199.767km
远地点 36252.452km 36251.335km
周期 1458.599分钟 1458.581分钟
每日圈数 0.987249 0.987261
详细信息
使用方式:
暂无
2D轨道图
3D轨道图
轨道高度分析图
轨道倾角分析图
轨道综合分析图
查看轨道综合分析图